EC7A LFMP-LERS

Flight info

Callsign EC7A
Flight time N/A
Altitude 4000
Route LERS
Aircraft C208/L-SFG/C

Departure

Time 2026-04-17 15:14
Airport Perpignan-Rivesaltes (Llabanère) Airport (LFMP)

Arrival

Time N/A
Airport Reus Airport (LERS)
Time Latitude Longitude Altitude Speed Heading
2026-04-17 15:07 42.74346 2.86716 146 ft 0 kts 303°
2026-04-17 15:09 42.74349 2.86711 146 ft 4 kts 310°
2026-04-17 15:10 42.74366 2.86702 146 ft 0 kts 10°
2026-04-17 15:10 42.74368 2.86703 146 ft 2 kts
2026-04-17 15:10 42.74366 2.86753 146 ft 11 kts 85°
2026-04-17 15:11 42.74206 2.86932 146 ft 21 kts 139°
2026-04-17 15:11 42.74090 2.87041 145 ft 20 kts 148°
2026-04-17 15:11 42.73978 2.87136 144 ft 18 kts 152°
2026-04-17 15:11 42.73871 2.87223 144 ft 18 kts 147°
2026-04-17 15:12 42.73763 2.87315 143 ft 20 kts 152°
2026-04-17 15:12 42.73625 2.87430 143 ft 25 kts 154°
2026-04-17 15:12 42.73554 2.87296 145 ft 23 kts 298°
2026-04-17 15:12 42.73656 2.87106 145 ft 27 kts 308°
2026-04-17 15:13 42.73771 2.86901 147 ft 28 kts 303°
2026-04-17 15:13 42.73885 2.86725 150 ft 14 kts 335°
2026-04-17 15:13 42.73856 2.86752 149 ft 27 kts 126°
2026-04-17 15:13 42.73559 2.87280 217 ft 94 kts 126°
2026-04-17 15:14 42.73118 2.88045 458 ft 112 kts 129°
2026-04-17 15:14 42.72625 2.88920 700 ft 122 kts 130°
2026-04-17 15:14 42.72099 2.89866 950 ft 128 kts 129°
2026-04-17 15:14 42.71545 2.90863 1198 ft 137 kts 128°
2026-04-17 15:15 42.70941 2.91925 1454 ft 147 kts 129°
2026-04-17 15:15 42.70302 2.93041 1595 ft 159 kts 129°
2026-04-17 15:15 42.69601 2.94274 1643 ft 168 kts 129°
2026-04-17 15:15 42.68890 2.95536 1756 ft 169 kts 129°
2026-04-17 15:16 42.68171 2.96801 1878 ft 169 kts 129°
2026-04-17 15:16 42.67453 2.98072 1989 ft 171 kts 129°
2026-04-17 15:16 42.66718 2.99378 2004 ft 177 kts 129°
2026-04-17 15:16 42.65961 3.00716 1997 ft 180 kts 129°
2026-04-17 15:17 42.65201 3.02065 1996 ft 180 kts 129°
2026-04-17 15:17 42.64448 3.03395 2006 ft 181 kts 129°
2026-04-17 15:17 42.63682 3.04756 1998 ft 181 kts 129°
2026-04-17 15:17 42.62712 3.05800 2013 ft 183 kts 161°
2026-04-17 15:18 42.61447 3.06107 2003 ft 187 kts 174°
2026-04-17 15:18 42.60152 3.06304 2010 ft 188 kts 175°
2026-04-17 15:18 42.58852 3.06499 2005 ft 187 kts 175°
2026-04-17 15:18 42.57556 3.06686 2013 ft 187 kts 175°
2026-04-17 15:19 42.56267 3.06871 2005 ft 185 kts 175°
2026-04-17 15:19 42.55011 3.07053 2004 ft 184 kts 175°
2026-04-17 15:19 42.53783 3.07462 1993 ft 184 kts 150°
2026-04-17 15:19 42.52981 3.08770 2005 ft 182 kts 115°
2026-04-17 15:20 42.52418 3.10308 2029 ft 182 kts 131°
2026-04-17 15:20 42.51456 3.11342 2306 ft 174 kts 148°
2026-04-17 15:20 42.50383 3.12064 2557 ft 171 kts 165°
2026-04-17 15:20 42.49213 3.12228 2813 ft 168 kts 181°
2026-04-17 15:21 42.48049 3.12290 3004 ft 170 kts 172°
2026-04-17 15:21 42.46995 3.13110 2999 ft 183 kts 136°
2026-04-17 15:21 42.46140 3.14398 3009 ft 185 kts 131°
2026-04-17 15:21 42.45293 3.15731 2894 ft 193 kts 131°
2026-04-17 15:22 42.44307 3.16983 2772 ft 197 kts 149°
2026-04-17 15:22 42.43031 3.17612 2655 ft 196 kts 179°
2026-04-17 15:22 42.41693 3.17372 2545 ft 194 kts 195°
2026-04-17 15:22 42.40389 3.16917 2435 ft 193 kts 198°
2026-04-17 15:23 42.39073 3.16471 2176 ft 197 kts 190°
2026-04-17 15:23 42.37695 3.16405 1919 ft 199 kts 176°
2026-04-17 15:23 42.36409 3.16951 1638 ft 194 kts 149°
2026-04-17 15:23 42.35387 3.18040 1632 ft 169 kts 140°
2026-04-17 15:24 42.34533 3.19149 1506 ft 177 kts 126°
2026-04-17 15:24 42.34265 3.20741 1505 ft 180 kts 84°
2026-04-17 15:24 42.34387 3.22398 1527 ft 177 kts 99°
2026-04-17 15:24 42.34120 3.24007 1523 ft 176 kts 106°
2026-04-17 15:25 42.33794 3.25596 1521 ft 175 kts 110°
2026-04-17 15:25 42.33162 3.26976 1528 ft 175 kts 134°
2026-04-17 15:25 42.32208 3.27998 1530 ft 176 kts 150°
2026-04-17 15:25 42.31095 3.28645 1535 ft 175 kts 171°
2026-04-17 15:26 42.29884 3.28678 1529 ft 174 kts 185°
2026-04-17 15:26 42.28685 3.28632 1523 ft 175 kts 179°
2026-04-17 15:26 42.27467 3.28686 1519 ft 174 kts 179°
2026-04-17 15:26 42.26268 3.28538 1533 ft 174 kts 195°
2026-04-17 15:27 42.25159 3.27908 1523 ft 173 kts 208°
2026-04-17 15:27 42.24124 3.27083 1525 ft 173 kts 215°
2026-04-17 15:27 42.23477 3.25748 1526 ft 175 kts 255°
2026-04-17 15:27 42.23302 3.24125 1524 ft 176 kts 265°
2026-04-17 15:28 42.23331 3.22484 1530 ft 176 kts 279°
2026-04-17 15:28 42.23687 3.20890 1518 ft 179 kts 291°
2026-04-17 15:28 42.24189 3.19364 1512 ft 177 kts 295°
2026-04-17 15:28 42.24888 3.18031 1517 ft 180 kts 320°
2026-04-17 15:29 42.25878 3.17011 1507 ft 179 kts 310°
2026-04-17 15:29 42.26302 3.15489 1505 ft 176 kts 269°
2026-04-17 15:29 42.25859 3.13998 1489 ft 174 kts 227°
2026-04-17 15:29 42.24824 3.13187 1496 ft 174 kts 202°
2026-04-17 15:30 42.23700 3.12571 1494 ft 175 kts 202°
2026-04-17 15:30 42.22552 3.12042 1494 ft 173 kts 196°
2026-04-17 15:30 42.21383 3.11683 1490 ft 172 kts 188°
2026-04-17 15:30 42.20207 3.11580 1495 ft 171 kts 183°
2026-04-17 15:31 42.19026 3.11558 1493 ft 169 kts 178°
2026-04-17 15:31 42.17851 3.11706 1491 ft 170 kts 174°
2026-04-17 15:31 42.16678 3.11928 1489 ft 171 kts 171°
2026-04-17 15:31 42.15516 3.12250 1495 ft 171 kts 166°
2026-04-17 15:32 42.14401 3.12764 1495 ft 170 kts 157°
2026-04-17 15:32 42.13366 3.13535 1493 ft 169 kts 144°
2026-04-17 15:32 42.12541 3.14648 1491 ft 168 kts 130°
2026-04-17 15:32 42.11869 3.15939 1500 ft 170 kts 126°
2026-04-17 15:33 42.11190 3.17215 1511 ft 170 kts 130°
2026-04-17 15:33 42.10353 3.18326 1507 ft 167 kts 146°
2026-04-17 15:33 42.09354 3.19123 1517 ft 167 kts 153°
2026-04-17 15:33 42.08324 3.19865 1511 ft 169 kts 154°
2026-04-17 15:34 42.07265 3.20523 1515 ft 168 kts 168°
2026-04-17 15:34 42.06095 3.20467 1510 ft 170 kts 190°
2026-04-17 15:34 42.04925 3.20163 1508 ft 172 kts 192°
2026-04-17 15:34 42.03764 3.19790 1504 ft 171 kts 192°
2026-04-17 15:35 42.02586 3.19560 1504 ft 171 kts 183°
2026-04-17 15:35 42.01397 3.19656 1498 ft 171 kts 173°
2026-04-17 15:35 42.00245 3.19930 1499 ft 170 kts 169°
2026-04-17 15:35 41.99103 3.20347 1493 ft 171 kts 159°
2026-04-17 15:36 41.98141 3.21241 1503 ft 171 kts 134°
2026-04-17 15:36 41.97312 3.22371 1509 ft 169 kts 150°
2026-04-17 15:36 41.96200 3.22823 1512 ft 168 kts 175°
2026-04-17 15:36 41.95038 3.22655 1516 ft 170 kts 191°
2026-04-17 15:37 41.93886 3.22271 1524 ft 170 kts 202°
2026-04-17 15:37 41.92823 3.21621 1659 ft 166 kts 206°
2026-04-17 15:37 41.91785 3.20946 1789 ft 165 kts 206°
2026-04-17 15:37 41.90845 3.20133 1928 ft 164 kts 227°
2026-04-17 15:38 41.90158 3.18911 2061 ft 163 kts 234°
2026-04-17 15:38 41.89508 3.17691 2276 ft 160 kts 234°
2026-04-17 15:38 41.88855 3.16492 2474 ft 158 kts 233°
2026-04-17 15:38 41.88269 3.15256 2673 ft 157 kts 242°
2026-04-17 15:39 41.87759 3.13953 2878 ft 158 kts 243°
2026-04-17 15:39 41.87250 3.12671 3126 ft 154 kts 243°
2026-04-17 15:39 41.86745 3.11410 3373 ft 152 kts 243°
2026-04-17 15:39 41.86249 3.10188 3614 ft 151 kts 243°
2026-04-17 15:40 41.85742 3.08949 3859 ft 152 kts 243°
2026-04-17 15:40 41.85225 3.07710 4111 ft 153 kts 243°
2026-04-17 15:40 41.84699 3.06468 4350 ft 154 kts 243°
2026-04-17 15:40 41.84166 3.05230 4596 ft 153 kts 243°
2026-04-17 15:41 41.83633 3.03989 4855 ft 154 kts 243°
2026-04-17 15:41 41.83099 3.02743 5100 ft 154 kts 244°
2026-04-17 15:41 41.82550 3.01512 5343 ft 154 kts 243°
2026-04-17 15:41 41.81994 3.00288 5589 ft 153 kts 243°
2026-04-17 15:42 41.81444 2.99071 5843 ft 155 kts 243°
2026-04-17 15:42 41.80883 2.97838 6086 ft 154 kts 243°
2026-04-17 15:42 41.80321 2.96619 6345 ft 154 kts 244°
2026-04-17 15:42 41.79770 2.95392 6594 ft 154 kts 244°
2026-04-17 15:43 41.79194 2.94164 6769 ft 158 kts 243°
2026-04-17 15:43 41.78604 2.92902 6930 ft 160 kts 243°
2026-04-17 15:43 41.78018 2.91621 7104 ft 162 kts 243°
2026-04-17 15:43 41.77432 2.90324 7274 ft 163 kts 243°
2026-04-17 15:44 41.76845 2.89020 7444 ft 164 kts 243°
2026-04-17 15:44 41.76255 2.87738 7610 ft 164 kts 242°
2026-04-17 15:44 41.75645 2.86445 7785 ft 165 kts 242°